Location: Spiekeroog
(53.7670°N, 7.7000°E)
Time: 07:59:24
(UTC+01:00)

ISS - Visible Passes

Search period start: 20 March 2019 00:00
Search period end: 30 March 2019 00:00
Orbit: 406 x 411 km, 51.6° (Epoch: 20 March)

Date Brightness Start Highest point End Pass type
(mag) Time Alt. Az. Time Alt. Az. Time Alt. Az.
22 Mar -1.1 21:13:20 10° SW 21:13:34 11° SW 21:13:34 11° SW visible
23 Mar -2.5 20:22:43 10° SSW 20:25:14 24° SSE 20:25:14 24° SSE visible
24 Mar -2.0 19:32:21 10° S 19:34:35 17° SE 19:36:42 11° ESE visible
24 Mar -2.5 21:07:28 10° WSW 21:09:29 31° SW 21:09:29 31° SW visible
25 Mar -3.1 20:16:36 10° SW 20:19:40 36° SSE 20:20:47 27° ESE visible
25 Mar -1.2 21:52:44 10° W 21:53:32 16° WSW 21:53:32 16° WSW visible
26 Mar -2.6 19:25:52 10° SW 19:28:44 28° SSE 19:31:37 10° E visible
26 Mar -3.6 21:01:43 10° WSW 21:04:43 55° SSW 21:04:43 55° SSW visible
27 Mar -3.5 20:10:43 10° WSW 20:13:57 50° SSE 20:15:48 22° E visible
27 Mar -1.8 21:47:04 10° W 21:48:32 23° WSW 21:48:32 23° WSW visible
28 Mar -3.8 20:56:00 10° W 20:59:16 60° S 20:59:33 57° SSE visible
29 Mar -3.6 20:04:57 10° WSW 20:08:13 59° S 20:10:30 18° E visible
29 Mar -2.1 21:41:24 10° W 21:43:14 27° WSW 21:43:14 27° WSW visible
